Résultats sport de masse course à pied

Résultats : Les Foulées du Bugatti 2015 - Marathon Relais

Classement Nom, prénom Catégorie Sexe Club Temps
201 FORREST GUMP CONTRE ATTAQUE . E6 X 00:35:57
202 CHARTRAIN BRUNO . E3 X 00:35:57
203 SARTHE RUNNING MIXTE 2015 . E6 X 00:35:59
204 PHARMA ANGERS . E6 X 00:36:01
205 LES LOUESIENS . E4 X 00:36:01
206 LYCEE CLAUDE CHAPPE 1 . E6 X 00:36:06
207 CAP CONDE . E6 X 00:36:06
208 COLAS 2 . E3 X 00:36:07
209 TEAM'S FRIENDS . E3 X 00:36:08
210 CHACAL 28 . E2 X 00:36:09
211 FAMILY TEAM 1 . E2 X 00:36:11
212 COOL RASTA . E6 X 00:36:12
213 LUFREDSCEL . E4 X 00:36:14
214 BIDOU TEAM . E4 X 00:36:15
215 HARLEY&DAVIDSON . E2 X 00:36:16
216 TEAM ROUILLON . E3 X 00:36:19
217 LYCEE CLAUDE CHAPPE . E6 X 00:36:19
218 LES GAZELLES . E4 X 00:36:19
219 LES KINGS CAM . E4 X 00:36:25
220 LES TURBULENTS ST MARTIENS . E6 X 00:36:28
221 LE FLORE . E4 X 00:36:29
222 VILVEK RUNNING TEAM . E6 X 00:36:37
223 LES JOYEUX VENDEENS . E2 X 00:36:38
224 LES RUN'MINTONS . E6 X 00:36:40
225 UN MÊME REGARD POUR TOUS . H X 00:36:41
226 LES FURIEUX . E2 X 00:36:45
227 LIONS CLUB LE MANS PLANTAGENET . E6 X 00:36:45
228 FAMILLE ROBERT . E6 X 00:36:45
229 MI6 . E6 X 00:36:46
230 TEAM HME . E3 X 00:36:48
231 LES FONDS DE CUBI . E6 X 00:36:51
232 LES NOGENTAIS . E6 X 00:36:52
233 ARTUS RH . E6 X 00:36:54
234 LES CPAC . E4 X 00:36:59
235 GROUPE GRUAU 2 . E4 X 00:37:01
236 LES SACOCHES . E6 X 00:37:04
237 RIGOLOS . E3 X 00:37:04
238 MACH'TEAM . E6 X 00:37:04
239 LES ROGERS . E2 X 00:37:06
240 PHARMA P2 ANGERS . E6 X 00:37:06
241 LES PANDAS . E4 X 00:37:07
242 SARRELAYEURS 2 . E4 X 00:37:09
243 LES BRONZES . E6 X 00:37:09
244 GENERATION CASIMIR . E3 X 00:37:10
245 LES COPAINS DEVANT . E3 X 00:37:11
246 TEAM GUION . E4 X 00:37:12
247 VALEO 3 . E4 X 00:37:13
248 LES 6 TRONCS PRESSES . E6 X 00:37:15
249 LES GOUDURIX . E3 X 00:37:16
250 ZEBULONS TEAM . E6 X 00:37:19